Weather History for Lancaster, PA

Change the Weather History Date:

Tuesday, February 28, 2012

  Actual Average Record
Temperature  
Mean Temperature 40 °F -  
Max Temperature 50 °F 43 °F 62 °F (1977)
Min Temperature 30 °F 26 °F 3 °F (2014)
Degree Days  
Heating Degree Days 25    
Moisture  
Dew Point 22 °F    
Average Humidity 48    
Maximum Humidity 66    
Minimum Humidity 31    
Precipitation  
Precipitation 0.00 in - - ()
Sea Level Pressure  
Sea Level Pressure 30.38 in    
Wind  
Wind Speed 10 mph (WNW)    
Max Wind Speed 18 mph    
Max Gust Speed 32 mph    
Visibility 10 miles    
Events      
Averages and records for this station are not official NWS values.
T = Trace of Precipitation, MM = Missing Value Source: NWS Daily Summary

Daily Weather History Graph

Daily Weather History Graph

Search for Another Location

Airport:

Trip Planner

Search our weather history database for the weather conditions in past years. The results will help you decide how hot, cold, wet, or windy it might be!

Date:

Astronomy

Feb. 28, 2012 Rise Set
Actual Time 6:40 AM EST 5:55 PM EST
Civil Twilight 6:13 AM EST 6:22 PM EST
Nautical Twilight 5:42 AM EST 6:54 PM EST
Astronomical Twilight 5:10 AM EST 7:25 PM EST
Moon 9:46 AM EST (2/28) No Moon Set
Length of Visible Light 12h 08m
Length of Day
11h 14m
Waxing Crescent, 37% of the Moon is Illuminated
Feb 28
Waxing Crescent
Feb 29
First Quarter
Mar 8
Full
Mar 14
Last Quarter
Mar 22
New

Hourly Weather History & Observations

Time (EST) Temp. Windchill Dew Point Humidity Pressure Visibility Wind Dir Wind Speed Gust Speed Precip Events Conditions
12:53 AM 43.0 °F 34.8 °F 23.0 °F 45% 30.29 in 10.0 mi WNW 18.4 mph 32.2 mph N/A   Clear
1:53 AM 39.0 °F 30.3 °F 21.9 °F 50% 30.32 in 10.0 mi WNW 16.1 mph 23.0 mph N/A   Clear
2:53 AM 37.0 °F 28.1 °F 21.0 °F 52% 30.35 in 10.0 mi WNW 15.0 mph - N/A   Clear
3:53 AM 35.1 °F 29.3 °F 19.0 °F 52% 30.38 in 10.0 mi West 6.9 mph - N/A   Clear
4:53 AM 33.1 °F 26.9 °F 19.9 °F 59% 30.41 in 10.0 mi WSW 6.9 mph - N/A   Clear
5:53 AM 30.9 °F 23.5 °F 19.9 °F 64% 30.42 in 10.0 mi West 8.1 mph - N/A   Clear
6:53 AM 30.0 °F 24.1 °F 19.9 °F 66% 30.43 in 10.0 mi WNW 5.8 mph - N/A   Clear
7:53 AM 34.0 °F 26.6 °F 21.9 °F 61% 30.45 in 10.0 mi WNW 9.2 mph - N/A   Clear
8:53 AM 37.9 °F 29.2 °F 21.9 °F 53% 30.45 in 10.0 mi WNW 15.0 mph - N/A   Clear
9:53 AM 41.0 °F 33.5 °F 21.9 °F 47% 30.44 in 10.0 mi NW 13.8 mph 20.7 mph N/A   Clear
10:53 AM 42.1 °F 35.2 °F 21.0 °F 43% 30.44 in 10.0 mi NW 12.7 mph - N/A   Clear
11:53 AM 45.0 °F 39.7 °F 21.0 °F 39% 30.42 in 10.0 mi WNW 10.4 mph - N/A   Clear
12:53 PM 46.9 °F - 21.9 °F 37% 30.39 in 10.0 mi NW 5.8 mph 16.1 mph N/A   Clear
1:53 PM 48.0 °F - 21.0 °F 34% 30.38 in 10.0 mi North 4.6 mph - N/A   Clear
2:53 PM 50.0 °F - 21.9 °F 33% 30.37 in 10.0 mi Variable 4.6 mph - N/A   Clear
3:53 PM 50.0 °F - 19.9 °F 31% 30.36 in 10.0 mi Calm Calm - N/A   Clear
4:53 PM 48.9 °F - 19.9 °F 32% 30.36 in 10.0 mi NW 3.5 mph - N/A   Clear
5:53 PM 46.0 °F 44.8 °F 21.0 °F 37% 30.36 in 10.0 mi SW 3.5 mph - N/A   Clear
6:53 PM 44.1 °F - 21.0 °F 40% 30.37 in 10.0 mi Calm Calm - N/A   Scattered Clouds
7:53 PM 42.1 °F - 24.1 °F 49% 30.36 in 10.0 mi Calm Calm - N/A   Scattered Clouds
8:53 PM 43.0 °F - 24.1 °F 47% 30.36 in 10.0 mi Calm Calm - N/A   Mostly Cloudy
9:53 PM 37.9 °F 34.4 °F 27.0 °F 65% 30.35 in 10.0 mi SE 4.6 mph - N/A   Partly Cloudy
10:53 PM 37.9 °F 34.4 °F 27.0 °F 65% 30.35 in 7.0 mi ENE 4.6 mph - N/A   Partly Cloudy
11:53 PM 37.9 °F 35.5 °F 25.0 °F 60% 30.34 in 9.0 mi East 3.5 mph - N/A   Clear